Orbital Elements at Epoch 2459000.5 (2020-May-31.0) TDB
Reference: JPL 21 (heliocentric ecliptic J2000)
Element | Value | Uncertainty (1-sigma) | Units |
e | .01673631250773995 | 5.3372e-08 | |
a | 3.076562965264269 | 2.275e-08 | au |
q | 3.025072646027867 | 1.673e-07 | au |
i | 10.03767508530645 | 5.4904e-06 | deg |
node | 152.3648006275614 | 2.8438e-05 | deg |
peri | 64.02213930677955 | 0.00014465 | deg |
M | 338.5428548393627 | 0.00013995 | deg |
tp | 2459117.980713946814 (2020-Sep-25.48071395) | 0.00076603 | TDB |
period | 1971.04771880086 5.40 | 2.1863e-05 5.986e-08 | d yr |
n | .1826439799331777 | 2.0259e-09 | deg/d |
Q | 3.128053284500671 | 2.3131e-08 | au |
|
| | Orbit Determination Parameters
Additional Information
|